Regional Weather Roundup
Issued by NWS Wilmington, NC

Home | Current Version | Previous Version | Text Only | Print | Product List | Glossary On
Versions: 1 2 3 4 5 6 7 8 9 10 11 12 13 14 15 16 17 18 19 20 21 22 23 24 25 26 27 28 29 30 31 32 33 34 35 36 37 38 39 40 41 42 43 44 45 46 47 48 49 50
000
ASUS42 KILM 251213
RWRILM
RWRILM
REGIONAL HOURLY WEATHER ROUNDUP
NATIONAL WEATHER SERVICE WILMINGTON NC
800 AM EDT SUN JUN 25 2017

NOTE: "FAIR" INDICATES FEW OR NO CLOUDS BELOW 12,000 FEET WITH NO
SIGNIFICANT WEATHER AND/OR OBSTRUCTIONS TO VISIBILITY.

...............WFO WILMINGTON COUNTY WARNING AREA...............

......COASTAL NC AND SC COUNTIES......

CITY           SKY/WX    TMP DP  RH WIND       PRES   REMARKS
WILMINGTON     CLOUDY    77  75  93 W7        30.03S
N MYRTLE BEACH CLOUDY    77  74  90 W5        30.03S
MYRTLE BEACH   MOSUNNY   77  73  88 SW8       30.05R

......INLAND NC AND SC COUNTIES.......

CITY           SKY/WX    TMP DP  RH WIND       PRES   REMARKS
LUMBERTON      CLOUDY    76  74  93 W6        30.04R
ELIZABETHTOWN  NOT AVBL
WHITEVILLE     MOSUNNY   76  74  92 CALM      30.04R
FLORENCE       CLOUDY    76  73  91 SW5       30.05R
DARLINGTON     PTSUNNY   74  72  93 W5        30.06R
KINGSTREE      CLOUDY    73  72  94 W6        30.06R
HARTSVILLE     FAIR      72  70  94 W3        30.06R
BENNETTSVILLE  PTSUNNY   77  75  94 NW3       30.05R
CONWAY         FAIR      73  72  94 CALM      30.04S
GEORGETOWN     FAIR      77  77 100 W6        30.06R
MARION         CLOUDY    73  72  94 W3        30.04S

....................REST OF NORTH CAROLINA......................

.........EASTERN NC.........

CITY           SKY/WX    TMP DP  RH WIND       PRES   REMARKS
CAPE HATTERAS  CLOUDY    78  74  87 W6        30.03R
JACKSONVILLE   CLOUDY    76  75  97 W3        30.04R
MOREHEAD CITY  CLOUDY    79  77  94 W7        30.02S
KENANSVILLE    CLOUDY    75  75 100 W5        30.04R FOG
NEW BERN       CLOUDY    76  75  97 W6        30.03S FOG
ELIZABETH CITY CLOUDY    75  74  96 W3        30.02S

.........CENTRAL NC.........

CITY           SKY/WX    TMP DP  RH WIND       PRES   REMARKS
RALEIGH DURHAM PTSUNNY   74  72  93 VRB3      30.06R
ROCKY MOUNT    CLOUDY    73  73 100 W3        30.05R
ROANOKE RAPIDS NOT AVBL
FAYETTEVILLE   CLOUDY    78  76  93 W5        30.04R
HOFFMAN        CLOUDY    73  72  96 N3        30.05R

.........WESTERN NC.........

CITY           SKY/WX    TMP DP  RH WIND       PRES   REMARKS
CHARLOTTE      PTSUNNY   72  67  84 NW5       30.09R
GREENSBORO     PTSUNNY   71  65  81 N5        30.08R
HICKORY        NOT AVBL
BOONE          NOT AVBL
ASHEVILLE      NOT AVBL

.....................REST OF SOUTH CAROLINA.....................

.........EASTERN SC.........

CITY           SKY/WX    TMP DP  RH WIND       PRES   REMARKS
CHARLESTON     MOSUNNY   78  72  81 NW9       30.06R
BEAUFORT MCAS  SUNNY     80  76  87 CALM      30.07R
HILTON HEAD    SUNNY     81  77  89 N5        30.08R

.........CENTRAL SC.........

CITY           SKY/WX    TMP DP  RH WIND       PRES   REMARKS
COLUMBIA       PTSUNNY   73  70  90 SW3       30.07R
ORANGEBURG     CLOUDY    75  73  93 CALM      30.07S
SUMTER SHAW    CLOUDY    74  71  91 SW7       30.05R

.........WESTERN SC.........

CITY           SKY/WX    TMP DP  RH WIND       PRES   REMARKS
GREENVILLE     NOT AVBL
ROCK HILL      MOSUNNY   73  68  84 CALM      30.10R
ANDERSON       CLOUDY    70  69  97 CALM      30.10R
CLEMSON        NOT AVBL
GREENWOOD      FOG       69  68  96 CALM      30.10R VSB 1/4


...................COASTAL AND OFFSHORE REPORTS..................

................LOCAL PIERS AND NC RESERVE................


STATION/POSITION TIME  SKY/WX   TEMP    WIND        PRES    VSBY
                                AIR SEA DIR/SP/G
                 (UTC)          (F)     (DEG/KT/KT) (MB)    (MI)
JOHNY MRCER PIER 1148            77 79  260/  5/  7 1015.9S
NC RESRV MASNBRO 1045            76     290/  2     1018.0
OCEAN CREST PIER NOT AVBL
SPRINGMAID  PIER 1148                               1016.6R


................COASTAL AND OFFSHORE BUOYS................


STATION/POSITION TIME  SKY/WX   TEMP    WIND        PRES    VSBY
                                AIR SEA DIR/SP/G
                 (UTC)          (F)     (DEG/KT/KT) (MB)    (MI)
DIMNDSHOAL 41025 1150            79 80  250/ 16/ 17 1016.5R
WVE H/P(F/S)=  5/ 7 SWL H/P/D(F/S/D)=  2/150/ 9

CAPE LOOKOUT     1200            79     250/  7/  9 1016.6R
ONSLOW BAY 41036 NOT AVBL
ONSLOW BAY 41064 1108            80 80  230/ 14/ 17 1016.9R
ONSLOW BAY 41159 1143               80                N/A
WVE H/P(F/S)=  5/ 6

MASNBO INL 41110 1159               79                N/A
WVE H/P(F/S)=  3/ 6

WILM HARBR 41108 NOT AVBL
27SE WRITB 41037 1108            79 80  220/ 14/ 19 1016.1S
FRYING PAN 41013 1200            80 80  230/ 14/ 17 1017.5
SUNST NRSH 41024 1108            78 79  270/  6/  8 1016.8R
CAPRS NRSH 41029 1108            83 83  310/ 12/ 16 1017.0R
EDISTO     41004 1200            81 81  220/ 16/ 19 1017.5


..........OFFSHORE BUOYS BEYOND 100 NM OFFSHORE...........
.....IN A TRIANGLE---HAT TO BERMUDA TO BAHAMAS TO HAT.....


STATION/POSITION TIME  SKY/WX   TEMP    WIND        PRES    VSBY
                                AIR SEA DIR/SP/G
                 (UTC)          (F)     (DEG/KT/KT) (MB)    (MI)
150E HAT   41001 1200            80 79  220/ 16/ 21 1018.3
W BERMUDA  41048 1150            81 80  240/  4/  6 1022.6R
WVE H/P(F/S)=  4/ 7 SWL H/P/D(F/S/D)=  3/300/ 7

ATLANTIC S 41049 1150            81 82  110/  8/ 10 1023.8R
WVE H/P(F/S)=  3/ 8 SWL H/P/D(F/S/D)=  3/ 70/ 8

E BAHAMAS  41046 1200            82 82  100/ 14/ 17 1021.0
NE BAHAMAS 41047 1200            81 83  140/ 10/ 12 1021.9
120E CANVRL41010 1200            83 83  180/ 10/ 12 1020.4

END



USA.gov is the U.S. government's official web portal to all federal, state and local government web resources and services.